Torna al catalogo

SL-14 DEB

AttivoPO
NORAD 45284·DEBRIS·🇷🇺 Russia

Lanciato Aug 15, 1991 da Plesetsk Cosmodrome

Loading…

Prossimi Passaggi (prossime 24 ore)

TLE

AggiornatoSource: Space-Track

Epoca: Sep 14, 2026, 13:23 UTC

1 45284U 91056W   26257.55766882 -.00005075  00000-0 -82307-2 0  9994
2 45284  82.5720  11.4849 0095860   1.6360 358.5074 13.46515169321177

Traccia SL-14 DEB in tempo reale con AllMySat

Download on the App Store